Regional Weather Roundup
Issued by NWS

Home | Current Version | Previous Version | Graphics & Text | Print | Product List | Glossary On
Versions: 1 2 3 4 5 6 7 8 9 10 11 12 13 14 15 16 17 18 19 20 21 22 23 24 25 26 27 28 29 30 31 32 33 34 35 36 37 38 39 40 41 42 43 44 45 46 47 48 49 50
000
ASUS45 KBOU 010610
RWRCO

WEATHER ROUNDUP FOR COLORADO
NATIONAL WEATHER SERVICE DENVER/BOULDER CO
1200 AM MDT WED JUL 01 2015

NOTE: "FAIR" INDICATES FEW OR NO CLOUDS BELOW 12000 FEET WITH NO
SIGNIFICANT WEATHER AND/OR OBSTRUCTIONS TO VISIBILITY.

COZ001>005-013-030-031-010700-
...NORTHWEST COLORADO...

CITY           SKY/WX    TMP DP  RH WIND       PRES   REMARKS
CRAIG          PTCLDY    60  49  66 CALM      30.20
HAYDEN         PTCLDY    64  46  52 E10       30.23S
MEEKER         PTCLDY    64  48  56 CALM      30.21
MOUNT WERNER   NOT AVBL
STEAMBOAT SPGS PTCLDY    60  50  69 CALM      30.26S
WALDEN         CLOUDY    54  50  87 S5        30.37S
$$

COZ006>008-011-010700-
...WEST CENTRAL VALLEYS...

CITY           SKY/WX    TMP DP  RH WIND       PRES   REMARKS
GRAND JUNCTION PTCLDY    76  43  30 NE3       30.04
MONTROSE       MOCLDY    75  47  36 E8        30.14
EAGLE          PTCLDY    66  52  59 SE6       30.26R
RIFLE          PTCLDY    72  44  36 SE10      30.12
DELTA          MOCLDY    78  47  33 E5        30.08S
NUCLA          MOCLDY    75  43  31 E10       30.17S
$$

COZ017>023-064>068-010700-
...SOUTHWEST COLORADO...

CITY           SKY/WX    TMP DP  RH WIND       PRES   REMARKS
DURANGO        CLOUDY    71  53  52 E5        30.17
CORTEZ         CLEAR     69  51  52 CALM      30.11
PAGOSA SPRINGS NOT AVBL
TELLURIDE      CLOUDY    66  40  39 CALM      30.45R
WOLF CREEK PAS NOT AVBL
$$

COZ009-010-012-014-032>034-037-058>063-010700-
...CENTRAL COLORADO...

CITY           SKY/WX    TMP DP  RH WIND       PRES   REMARKS
ASPEN          MOCLDY    62  47  57 SW7       30.32
BUENA VISTA    CLOUDY    62  55  77 CALM      30.38F
COPPER MTN     MOCLDY    55  36  47 S9        30.70S
BERTHOUD PASS  FAIR      45  36  70 NW17G30   30.74S
COTTONWOOD PAS NOT AVBL
GUNNISON       CLOUDY    70  43  37 E6        30.34R
KREMMLING      MOCLDY    61  46  59 S3        30.34S
LEADVILLE      MOCLDY    53  40  61 CALM      30.52
MONARCH PASS   CLOUDY    50  41  71 NE17      30.77F
SALIDA         CLOUDY    63  55  74 N3        30.42F
SUNLIGHT       PTCLDY    59  41  51 NE5       30.61S
WILKERSON PASS CLOUDY    54  37  54 CALM      30.67S
$$

COZ069>075-010700-
...SAN LUIS VALLEY/SANGRE DE CRISTO MOUNTAINS...

CITY           SKY/WX    TMP DP  RH WIND       PRES   REMARKS
ALAMOSA        LGT RAIN  63  54  72 CALM      30.33R
LA VETA PASS   CLOUDY    59  45  58 MISG      30.56R
SAGUACHE       CLOUDY    64  46  52 SW8       30.33S
$$

COZ035-036-038>040-010700-
...NORTHERN COLORADO FRONT RANGE...

CITY           SKY/WX    TMP DP  RH WIND       PRES   REMARKS
DENVER INTL AP LGT RAIN  69  54  58 N12G25    30.14
DMNS CITY PARK   N/A     72  53  50 E5G13     30.14F
AURORA         MOCLDY    70  55  58 N9        30.20R
FRONT RANGE AP LGT RAIN  72  54  53 N3G18     30.16
ERIE MUNI ARPT CLOUDY    71  55  56 SE5       30.14F
BOULDER MUN AP CLOUDY    70  52  52 CALM      30.15S
CENTENNIAL     CLOUDY    73  51  46 E5        30.20
BROOMFIELD     CLOUDY    72  54  53 NE5       30.19R
FORT COLLINS   CLOUDY    66  55  68 W5        30.14F
LONGMONT       CLOUDY    72  56  57 CALM      30.15S
$$

COZ041-046-047-076>085-087-088-010700-
...PIKES PEAK/PALMER DIVIDE AND SOUTHERN FOOTHILLS...

CITY           SKY/WX    TMP DP  RH WIND       PRES   REMARKS
COLO. SPRINGS  CLOUDY    73  52  47 N10       30.22R
A. F. ACADEMY  LGT RAIN  72  48  43 N6        30.25R
ELLICOTT       CLOUDY   N/A N/A N/A N6        30.20R
FALCON         CLOUDY    71  46  41 NW6G17    30.29R
FORT CARSON    CLOUDY    77  50  38 W7        30.17F
LIMON          CLOUDY    72  52  49 N12       30.16
MONUMENT HILL  CLOUDY    63  54  72 W5        30.30S
TRINIDAD       PTCLDY    73  49  42 NE6       30.15
$$

COZ042>045-048>051-090-091-010700-
...NORTHEAST COLORADO...

CITY           SKY/WX    TMP DP  RH WIND       PRES   REMARKS
GREELEY ARPT   CLOUDY    75  52  43 NW6       30.10R
AKRON          CLOUDY    74  53  48 NW25G31   30.07
BURLINGTON     CLOUDY    76  50  40 W10       30.01
WRAY           CLOUDY    80  56  43 NW23G33   29.95R
STERLING       LGT RAIN  79  54  41 NW23G35     N/A
HOLYOKE        CLOUDY    79  59  50 W16G25    29.94F
FORT MORGAN    CLOUDY    71  53  53 W9        30.09F
$$

COZ086-089-092>099-010700-
...SOUTHEAST COLORADO...

CITY           SKY/WX    TMP DP  RH WIND       PRES   REMARKS
PUEBLO         CLOUDY    80  53  39 NW9       30.07
LA JUNTA       MOCLDY    79  49  34 CALM      30.00
LAMAR          PTCLDY    70  52  52 S10       29.94
SPRINGFIELD      N/A     70  48  45 S13       30.05R
$$


USA.gov is the U.S. government's official web portal to all federal, state and local government web resources and services.